Eastover, SC

10:23 PM EDT on October 20, 2017 (GMT -0400)
McEntire Angs

Weather History for KMMT - January, 2013

Change the Weather History Date:

Friday, January 4, 2013

  Actual Average Record
Temperature  
Mean Temperature 42 °F -  
Max Temperature 54 °F 56 °F 75 °F (2005)
Min Temperature 30 °F 34 °F 15 °F (2001)
Degree Days  
Heating Degree Days 23    
Moisture  
Dew Point 32 °F    
Average Humidity 86    
Maximum Humidity 100    
Minimum Humidity 42    
Precipitation  
Precipitation 0.00 in - - ()
Sea Level Pressure  
Sea Level Pressure 30.31 in    
Wind  
Wind Speed 2 mph (NW)    
Max Wind Speed 8 mph    
Max Gust Speed -    
Visibility 4 miles    
Events Fog    
Averages and records for this station are not official NWS values.
T = Trace of Precipitation, MM = Missing Value Source: NWS Daily Summary

Daily Weather History Graph

Daily Weather History Graph

Search for Another Location

Airport or City:

Trip Planner

Search our weather history database for the weather conditions in past years. The results will help you decide how hot, cold, wet, or windy it might be!

Date:

Astronomy

Jan. 04, 2013 Rise Set
Actual Time 7:29 AM EST 5:27 PM EST
Civil Twilight 7:01 AM EST 5:55 PM EST
Nautical Twilight 6:30 AM EST 6:26 PM EST
Astronomical Twilight 6:00 AM EST 6:56 PM EST
Moon No Moon Rise 11:32 AM EST (1/4)
Length of Visible Light 10h 53m
Length of Day
9h 58m
Waning Gibbous, 55% of the Moon is Illuminated
Jan 4
Waning Gibbous
Jan 4
Last Quarter
Jan 11
New
Jan 18
First Quarter
Jan 26
Full

Hourly Weather History & Observations

Time (EST) Temp. Windchill Dew Point Humidity Pressure Visibility Wind Dir Wind Speed Gust Speed Precip Events Conditions
12:43 AM 33.8 °F - 33.8 °F 100% 30.28 in 0.1 mi Calm Calm - N/A Fog Fog
12:55 AM 34.2 °F 31.2 °F 34.0 °F 99% 30.28 in 0.1 mi NNW 3.5 mph - N/A Fog Fog
1:18 AM 33.8 °F 28.6 °F 32.0 °F 93% 30.30 in 0.5 mi NW 5.8 mph - N/A Fog Fog
1:44 AM 32.0 °F 26.4 °F 32.0 °F 100% 30.30 in 0.2 mi NNW 5.8 mph - N/A Fog Fog
1:55 AM 32.9 °F 28.5 °F 32.7 °F 99% 30.31 in 0.2 mi NNW 4.6 mph - N/A Fog Fog
2:17 AM 32.0 °F 27.5 °F 32.0 °F 100% 30.31 in 0.5 mi NNW 4.6 mph - N/A Fog Fog
2:20 AM 32.0 °F 28.7 °F 32.0 °F 100% 30.31 in 0.8 mi NNW 3.5 mph - N/A   Clear
2:28 AM 32.0 °F - 32.0 °F 100% 30.31 in 1.0 mi Calm Calm - N/A   Clear
2:35 AM 32.0 °F - 32.0 °F 100% 30.31 in 0.8 mi Calm Calm - N/A   Clear
2:42 AM 32.0 °F - 32.0 °F 100% 30.31 in 0.5 mi Calm Calm - N/A Fog Fog
2:55 AM 31.8 °F - 31.6 °F 99% 30.31 in 0.5 mi Calm Calm - N/A Fog Light Freezing Fog
3:23 AM 32.0 °F - 32.0 °F 100% 30.30 in 0.2 mi Calm Calm - N/A Fog Light Freezing Fog
3:53 AM 30.2 °F - 30.2 °F 100% 30.31 in 0.2 mi Calm Calm - N/A Fog Light Freezing Fog
3:55 AM 30.7 °F - 30.6 °F 99% 30.31 in 0.2 mi Calm Calm - N/A Fog Light Freezing Fog
4:21 AM 32.0 °F - 30.2 °F 93% 30.30 in 0.2 mi Calm Calm - N/A Fog Light Freezing Drizzle
4:41 AM 30.2 °F - 30.2 °F 100% 30.30 in 0.1 mi Calm Calm - N/A Fog Fog
4:55 AM 30.2 °F - 30.0 °F 99% 30.30 in 0.1 mi Calm Calm - N/A Fog Light Freezing Fog
5:55 AM 30.9 °F - 30.6 °F 99% 30.30 in 0.1 mi Calm Calm - N/A Fog Light Freezing Fog
6:55 AM 30.7 °F - 30.6 °F 99% 30.31 in 0.2 mi Calm Calm - N/A Fog Light Freezing Fog
7:55 AM 30.7 °F - 30.6 °F 99% 30.34 in 0.2 mi Calm Calm - N/A Fog Light Freezing Fog
8:55 AM 31.3 °F - 31.1 °F 99% 30.35 in 0.2 mi Calm Calm - N/A Fog Light Freezing Fog
9:55 AM 35.4 °F - 35.2 °F 99% 30.37 in 0.8 mi Calm Calm - N/A   Mostly Cloudy
10:00 AM 35.6 °F - 35.6 °F 100% 30.37 in 1.0 mi Calm Calm - N/A   Mostly Cloudy
10:07 AM 35.6 °F - 35.6 °F 100% 30.37 in 3.0 mi Calm Calm - N/A   Scattered Clouds
10:11 AM 35.6 °F - 35.6 °F 100% 30.37 in 5.0 mi Calm Calm - N/A   Scattered Clouds
10:55 AM 41.9 °F - 41.9 °F 100% 30.37 in 10.0 mi Calm Calm - N/A   Partly Cloudy
11:55 AM 47.7 °F - 39.9 °F 75% 30.34 in 10.0 mi WSW 3.5 mph - N/A   Clear
12:41 PM 51.8 °F - 30.2 °F 44% 30.32 in 10.0 mi SW 5.8 mph - N/A   Clear
12:55 PM 51.3 °F - 32.9 °F 50% 30.31 in 10.0 mi SW 6.9 mph - 0.00 in   Partly Cloudy
1:48 PM 53.6 °F - 32.0 °F 44% 30.29 in 10.0 mi Variable 4.6 mph - N/A   Partly Cloudy
1:55 PM 53.1 °F - 30.4 °F 42% 30.28 in 10.0 mi West 8.1 mph - N/A   Partly Cloudy
2:55 PM 53.8 °F - 31.8 °F 43% 30.26 in 10.0 mi Calm Calm - 0.00 in   Scattered Clouds
3:55 PM 54.0 °F - 32.9 °F 45% 30.26 in 10.0 mi Calm Calm - N/A   Scattered Clouds
4:55 PM 53.1 °F - 33.6 °F 48% 30.26 in 10.0 mi Calm Calm - N/A   Partly Cloudy
5:55 PM 48.0 °F - 33.4 °F 57% 30.27 in 10.0 mi Calm Calm - N/A   Partly Cloudy
6:55 PM 44.4 °F - 33.3 °F 65% 30.31 in 10.0 mi Calm Calm - N/A   Clear
7:55 PM 39.4 °F - 32.7 °F 77% 30.31 in 10.0 mi Calm Calm - N/A   Clear
8:55 PM 35.4 °F - 33.8 °F 94% 30.32 in 10.0 mi Calm Calm - N/A   Clear
9:55 PM 33.8 °F - 32.5 °F 95% 30.33 in 10.0 mi Calm Calm - N/A   Clear
10:55 PM 31.1 °F 27.7 °F 30.4 °F 97% 30.34 in 10.0 mi NNW 3.5 mph - N/A   Clear
11:55 PM 40.6 °F 37.5 °F 26.4 °F 57% 30.33 in 10.0 mi NNE 4.6 mph - N/A   Clear